Project,Study,Ord_Occ,Event_Num,Cast_ID,Date_Time_UTC,Date_Time_PST,Lat_Dec,Lon_Dec,Sta_ID,Line,Sta,Depth,Pressure,PrQ,Temp1,Temp1Q,Temp2,Temp2Q,TempAve,Salt1,Salt1Q,Salt1_Corr,Salt2,Salt2Q,Salt2_Corr,SaltAve_Corr,Ox1,Ox1Q,Ox1_CruiseCorr,Ox1_StaCorr,Ox2,Ox2Q,Ox2_CruiseCorr,Ox2_StaCorr,OxAve_StaCorr,Ox1uM,Ox1uM_CruiseCorr,Ox1uM_StaCorr,Ox2uM,Ox2uM_CruiseCorr,Ox2uM_StaCorr,OxAveuM_StaCorr,FluorV,FluorQ,EstChl_CruiseCorr,EstChl_StaCorr,ISUSV,ISUSQ,EstNO3_CruiseCorr,EstNO3_StaCorr,SigThetaTS1,SigThetaTS1Q,SigThetaTS2,SigThetaTS2Q,BAT,XMiss,TransQ,pH,pHQ,SPAR,SPARQ,PAR,PARQ,PoT1,PoT2,DynHt,SVA,OxSat1,OxSat2,BTL_Depth,BTL_Temp,SaltB,OxB,OxBuM,Chl-a,Phaeo,NO3,NO2,NH4,PO4,SIL
CalCOFI,2105SH,015,,2105_015d,07-May-2021 07:22:26,06-May-2021 23:22:26,31.41612,-121.99363,090.0 090.0,090.0,090.0,3.000,3.021,,14.6753,,14.6764,,14.6759,33.2413,,33.2425,33.2412,,33.2431,33.2428,5.7050,,6.0324,6.0186,5.7724,,6.0385,6.0229,6.0208,248.647,262.4344,261.4628,251.583,273.6680,261.5183,261.4906,0.1496,,0.8651,0.4809,2.6172,,1.7720,,24.6862,,24.6860,,,,,,,,,,,14.6749,14.6759,0.0057,324.736,98.499,99.665,3,14.623,33.2473,6.065,264.33,0.333,0.101,0.40,0.037,0.00,0.37,1.56
CalCOFI,2105SH,015,,2105_015d,07-May-2021 07:22:39,06-May-2021 23:22:39,31.41608,-121.99371,090.0 090.0,090.0,090.0,4.000,4.028,,14.6765,,14.6780,,14.6773,33.2415,,33.2427,33.2416,,33.2435,33.2431,5.6983,,6.0254,6.0115,5.7725,,6.0386,6.0230,6.0173,248.354,262.1281,261.1549,251.591,273.3515,261.5267,261.3408,0.1507,,0.8728,0.4850,2.6180,,1.7720,,24.6862,,24.6860,,,,,,,,,,,14.6759,14.6774,0.0128,324.765,98.386,99.671,,,,,,,,,,,,
CalCOFI,2105SH,015,,2105_015d,07-May-2021 07:22:42,06-May-2021 23:22:42,31.41606,-121.99373,090.0 090.0,090.0,090.0,5.000,5.035,,14.6765,,14.6773,,14.6769,33.2416,,33.2428,33.2415,,33.2434,33.2431,5.7051,,6.0325,6.0187,5.7720,,6.0380,6.0225,6.0206,248.652,262.4396,261.4680,251.567,273.6734,261.5017,261.4849,0.1507,,0.8728,0.4850,2.6177,,1.7720,,24.6863,,24.6860,,,,,,,,,,,14.6758,14.6766,0.0162,324.785,98.504,99.660,,,,,,,,,,,,
CalCOFI,2105SH,015,,2105_015d,07-May-2021 07:22:43,06-May-2021 23:22:43,31.41606,-121.99374,090.0 090.0,090.0,090.0,6.000,6.042,,14.6749,,14.6767,,14.6758,33.2414,,33.2426,33.2415,,33.2434,33.2430,5.7106,,6.0382,6.0246,5.7688,,6.0347,6.0191,6.0219,248.892,262.6905,261.7202,251.430,273.9326,261.3592,261.5397,0.1475,,0.8506,0.4729,2.6174,,1.7720,,24.6865,,24.6862,,,,,,,,,,,14.6740,14.6758,0.0195,324.798,98.596,99.605,,,,,,,,,,,,
CalCOFI,2105SH,015,,2105_015d,07-May-2021 07:22:45,06-May-2021 23:22:45,31.41606,-121.99376,090.0 090.0,090.0,090.0,7.000,7.049,,14.6762,,14.6764,,14.6763,33.2414,,33.2426,33.2412,,33.2431,33.2429,5.7028,,6.0301,6.0163,5.7682,,6.0341,6.0185,6.0174,248.552,262.3351,261.3630,251.403,273.5654,261.3311,261.3471,0.1511,,0.8755,0.4865,2.6169,,1.7720,,24.6863,,24.6861,,,,,,,,,,,14.6752,14.6753,0.0228,324.851,98.463,99.593,,,,,,,,,,,,
CalCOFI,2105SH,015,,2105_015d,07-May-2021 07:22:47,06-May-2021 23:22:47,31.41604,-121.99376,090.0 090.0,090.0,090.0,8.000,8.056,,14.6766,,14.6761,,14.6764,33.2414,,33.2426,33.2413,,33.2432,33.2429,5.6935,,6.0204,6.0064,5.7671,,6.0330,6.0173,6.0119,248.147,261.9117,260.9374,251.354,273.1280,261.2801,261.1088,0.1447,,0.8311,0.4623,2.6162,,1.7720,,24.6862,,24.6862,,,,,,,,,,,14.6755,14.6750,0.0260,324.883,98.304,99.573,,,,,,,,,,,,
CalCOFI,2105SH,015,,2105_015d,07-May-2021 07:22:49,06-May-2021 23:22:49,31.41604,-121.99377,090.0 090.0,090.0,090.0,9.000,9.063,,14.6729,,14.6736,,14.6733,33.2412,,33.2424,33.2410,,33.2429,33.2427,5.7290,,6.0575,6.0442,5.7680,,6.0339,6.0183,6.0313,249.695,263.5300,262.5640,251.392,274.7998,261.3196,261.9418,0.1459,,0.8394,0.4668,2.6156,,1.7720,,24.6869,,24.6866,,,,,,,,,,,14.6716,14.6723,0.0293,324.848,98.910,99.583,,,,,,,,,,,,
CalCOFI,2105SH,015,,2105_015d,07-May-2021 07:22:51,06-May-2021 23:22:51,31.41603,-121.99379,090.0 090.0,090.0,090.0,10.000,10.070,,14.6620,,14.6651,,14.6636,33.2409,,33.2421,33.2404,,33.2423,33.2422,5.6813,,6.0076,5.9934,5.7655,,6.0313,6.0156,6.0045,247.614,261.3545,260.3774,251.283,272.5523,261.2062,260.7918,0.1427,,0.8172,0.4547,2.6149,,1.7720,,24.6890,,24.6879,,,,,,,,,,,14.6605,14.6636,0.0326,324.678,98.064,99.523,10,14.636,,,262.33,0.381,0.130,0.51,0.035,0.00,0.36,1.58
CalCOFI,2105SH,015,,2105_015d,07-May-2021 07:22:53,06-May-2021 23:22:53,31.41602,-121.99380,090.0 090.0,090.0,090.0,11.000,11.077,,14.6224,,14.6238,,14.6231,33.2392,,33.2404,33.2369,,33.2388,33.2396,5.6714,,5.9973,5.9829,5.7711,,6.0371,6.0215,6.0022,247.181,260.9018,259.9225,251.527,272.0847,261.4601,260.6913,0.1489,,0.8603,0.4782,2.6140,,1.7720,,24.6962,,24.6941,,,,,,,,,,,14.6208,14.6222,0.0359,324.022,97.814,99.535,,,,,,,,,,,,
CalCOFI,2105SH,015,,2105_015d,07-May-2021 07:22:54,06-May-2021 23:22:54,31.41602,-121.99380,090.0 090.0,090.0,090.0,12.000,12.084,,14.5667,,14.5720,,14.5694,33.2358,,33.2370,33.2334,,33.2353,33.2362,5.7167,,6.0446,6.0311,5.7704,,6.0364,6.0208,6.0260,249.151,262.9613,261.9924,251.495,274.2123,261.4268,261.7096,0.1384,,0.7872,0.4383,2.6133,,1.7720,,24.7054,,24.7024,,,,,,,,,,,14.5650,14.5702,0.0391,323.170,98.483,99.418,,,,,,,,,,,,
CalCOFI,2105SH,015,,2105_015d,07-May-2021 07:22:56,06-May-2021 23:22:56,31.41602,-121.99382,090.0 090.0,090.0,090.0,13.000,13.091,,14.5316,,14.5295,,14.5306,33.2347,,33.2359,33.2298,,33.2317,33.2338,5.7099,,6.0375,6.0239,5.7724,,6.0385,6.0229,6.0234,248.856,262.6529,261.6824,251.580,273.8937,261.5152,261.5988,0.1410,,0.8053,0.4482,2.6124,,1.7720,,24.7121,,24.7087,,,,,,,,,,,14.5297,14.5276,0.0424,322.565,98.297,99.365,,,,,,,,,,,,
CalCOFI,2105SH,015,,2105_015d,07-May-2021 07:22:58,06-May-2021 23:22:58,31.41601,-121.99382,090.0 090.0,090.0,090.0,14.000,14.098,,14.4101,,14.4183,,14.4142,33.2317,,33.2329,33.2257,,33.2276,33.2303,5.7219,,6.0501,6.0366,5.7836,,6.0501,6.0347,6.0357,249.370,263.1902,262.2225,252.062,274.4488,262.0167,262.1196,0.1417,,0.8102,0.4509,2.6114,,1.7720,,24.7355,,24.7291,,,,,,,,,,,14.4081,14.4162,0.0456,320.362,98.259,99.332,,,,,,,,,,,,
CalCOFI,2105SH,015,,2105_015d,07-May-2021 07:23:00,06-May-2021 23:23:00,31.41600,-121.99384,090.0 090.0,090.0,090.0,15.000,15.105,,14.3558,,14.3594,,14.3576,33.2267,,33.2279,33.2251,,33.2270,33.2275,5.7151,,6.0430,6.0294,5.7840,,6.0505,6.0351,6.0323,249.073,262.8797,261.9104,252.075,274.1280,262.0302,261.9703,0.1387,,0.7892,0.4395,2.6091,,1.7720,,24.7431,,24.7411,,,,,,,,,,,14.3537,14.3573,0.0488,319.665,98.033,99.220,,,,,,,,,,,,
CalCOFI,2105SH,015,,2105_015d,07-May-2021 07:23:02,06-May-2021 23:23:02,31.41598,-121.99384,090.0 090.0,090.0,090.0,16.000,16.112,,14.3350,,14.3323,,14.3337,33.2284,,33.2296,33.2225,,33.2244,33.2270,5.7211,,6.0492,6.0358,5.7696,,6.0356,6.0199,6.0279,249.334,263.1526,262.1847,251.446,274.4099,261.3758,261.7803,0.1344,,0.7592,0.4231,2.6068,,1.7720,,24.7488,,24.7448,,,,,,,,,,,14.3327,14.3300,0.0520,319.150,98.095,98.917,,,,,,,,,,,,
CalCOFI,2105SH,015,,2105_015d,07-May-2021 07:23:03,06-May-2021 23:23:03,31.41598,-121.99385,090.0 090.0,090.0,090.0,17.000,17.119,,14.2383,,14.2364,,14.2374,33.2277,,33.2289,33.2218,,33.2237,33.2263,5.7017,,6.0289,6.0151,5.7687,,6.0346,6.0190,6.0171,248.484,262.2640,261.2915,251.406,273.4919,261.3342,261.3129,0.1467,,0.8450,0.4698,2.6053,,1.7720,,24.7686,,24.7644,,,,,,,,,,,14.2358,14.2339,0.0552,317.289,97.572,98.711,,,,,,,,,,,,
CalCOFI,2105SH,015,,2105_015d,07-May-2021 07:23:05,06-May-2021 23:23:05,31.41596,-121.99386,090.0 090.0,090.0,090.0,18.000,18.126,,14.0899,,14.0980,,14.0940,33.2288,,33.2300,33.2181,,33.2200,33.2250,5.7159,,6.0438,6.0302,5.7827,,6.0491,6.0337,6.0320,249.093,262.9006,261.9314,252.009,274.1496,261.9615,261.9465,0.1405,,0.8018,0.4463,2.6027,,1.7720,,24.8004,,24.7904,,,,,,,,,,,14.0873,14.0954,0.0584,314.286,97.521,98.672,,,,,,,,,,,,
CalCOFI,2105SH,015,,2105_015d,07-May-2021 07:23:07,06-May-2021 23:23:07,31.41596,-121.99386,090.0 090.0,090.0,090.0,19.000,19.133,,13.8664,,13.8654,,13.8659,33.2291,,33.2303,33.2206,,33.2225,33.2264,5.7425,,6.0716,6.0585,5.7999,,6.0669,6.0518,6.0552,250.243,264.1028,263.1398,252.747,275.3916,262.7293,262.9346,0.1465,,0.8436,0.4691,2.5997,,1.7720,,24.8469,,24.8406,,,,,,,,,,,13.8638,13.8627,0.0616,309.880,97.533,98.501,,,,,,,,,,,,
CalCOFI,2105SH,015,,2105_015d,07-May-2021 07:23:09,06-May-2021 23:23:09,31.41595,-121.99386,090.0 090.0,090.0,090.0,20.000,20.140,,13.6983,,13.6907,,13.6945,33.2282,,33.2294,33.2159,,33.2178,33.2236,5.7601,,6.0900,6.0773,5.8212,,6.0890,6.0742,6.0758,251.000,264.8942,263.9352,253.664,276.2092,263.6833,263.8093,0.1526,,0.8859,0.4922,2.5968,,1.7720,,24.8807,,24.8728,,,,,,,,,,,13.6955,13.6879,0.0647,306.690,97.496,98.507,,,,,,,,,,,,
CalCOFI,2105SH,015,,2105_015d,07-May-2021 07:23:11,06-May-2021 23:23:11,31.41594,-121.99388,090.0 090.0,090.0,090.0,21.000,21.147,,13.5634,,13.5634,,13.5634,33.2215,,33.2227,33.2150,,33.2169,33.2198,5.7646,,6.0947,6.0821,5.8272,,6.0952,6.0806,6.0814,251.194,265.0970,264.1390,253.920,276.4187,263.9496,264.0443,0.1533,,0.8908,0.4949,2.5929,,1.7720,,24.9030,,24.8981,,,,,,,,,,,13.5605,13.5604,0.0677,304.583,97.301,98.352,,,,,,,,,,,,
CalCOFI,2105SH,015,,2105_015d,07-May-2021 07:23:13,06-May-2021 23:23:13,31.41593,-121.99390,090.0 090.0,090.0,090.0,22.000,22.154,,13.5158,,13.5158,,13.5158,33.2329,,33.2341,33.2271,,33.2290,33.2316,5.7469,,6.0762,6.0632,5.8270,,6.0950,6.0803,6.0718,250.417,264.2847,263.3226,253.906,275.5796,263.9351,263.6289,0.1585,,0.9267,0.5146,2.5904,,1.7720,,24.9215,,24.9171,,,,,,,,,,,13.5128,13.5128,0.0708,302.848,96.914,98.261,,,,,,,,,,,,
CalCOFI,2105SH,015,,2105_015d,07-May-2021 07:23:14,06-May-2021 23:23:14,31.41592,-121.99390,090.0 090.0,090.0,090.0,23.000,23.162,,13.4717,,13.4723,,13.4720,33.2458,,33.2470,33.2413,,33.2432,33.2451,5.7340,,6.0627,6.0495,5.8268,,6.0948,6.0801,6.0648,249.850,263.6920,262.7268,253.896,274.9672,263.9247,263.3258,0.1637,,0.9625,0.5344,2.5883,,1.7720,,24.9405,,24.9369,,,,,,,,,,,13.4685,13.4691,0.0738,301.069,96.617,98.179,,,,,,,,,,,,
CalCOFI,2105SH,015,,2105_015d,07-May-2021 07:23:17,06-May-2021 23:23:17,31.41592,-121.99391,090.0 090.0,090.0,090.0,24.000,24.169,,13.4511,,13.4515,,13.4513,33.2648,,33.2660,33.2614,,33.2633,33.2647,5.7580,,6.0878,6.0750,5.8248,,6.0927,6.0780,6.0765,250.888,264.7771,263.8175,253.801,276.0882,263.8258,263.8217,0.1792,,1.0684,0.5932,2.5854,,1.7720,,24.9594,,24.9567,,,,,,,,,,,13.4478,13.4481,0.0769,299.302,96.991,98.115,,,,,,,,,,,,
CalCOFI,2105SH,015,,2105_015d,07-May-2021 07:23:19,06-May-2021 23:23:19,31.41590,-121.99392,090.0 090.0,090.0,090.0,25.000,25.176,,13.4450,,13.4453,,13.4452,33.2692,,33.2704,33.2672,,33.2691,33.2698,5.7374,,6.0663,6.0531,5.8232,,6.0911,6.0763,6.0647,249.991,263.8394,262.8750,253.732,275.1195,263.7541,263.3146,0.1675,,0.9885,0.5488,2.5832,,1.7720,,24.9641,,24.9624,,,,,,,,,,,13.4415,13.4419,0.0799,298.882,96.635,98.080,,,,,,,,,,,,
CalCOFI,2105SH,015,,2105_015d,07-May-2021 07:23:20,06-May-2021 23:23:20,31.41590,-121.99392,090.0 090.0,090.0,090.0,26.000,26.183,,13.4411,,13.4411,,13.4411,33.2805,,33.2817,33.2788,,33.2807,33.2812,5.7428,,6.0719,6.0589,5.8305,,6.0986,6.0840,6.0715,250.224,264.0830,263.1198,254.048,275.3711,264.0828,263.6013,0.1633,,0.9597,0.5329,2.5822,,1.7720,,24.9736,,24.9723,,,,,,,,,,,13.4375,13.4375,0.0829,298.005,96.725,98.202,,,,,,,,,,,,
CalCOFI,2105SH,015,,2105_015d,07-May-2021 07:23:22,06-May-2021 23:23:22,31.41589,-121.99393,090.0 090.0,090.0,090.0,27.000,27.190,,13.4594,,13.4606,,13.4600,33.2959,,33.2971,33.2955,,33.2974,33.2973,5.7552,,6.0849,6.0721,5.8287,,6.0968,6.0821,6.0771,250.763,264.6464,263.6862,253.966,275.9532,263.9975,263.8419,0.1805,,1.0772,0.5982,2.5808,,1.7720,,24.9819,,24.9813,,,,,,,,,,,13.4556,13.4568,0.0859,297.245,96.980,98.221,,,,,,,,,,,,
CalCOFI,2105SH,015,,2105_015d,07-May-2021 07:23:25,06-May-2021 23:23:25,31.41588,-121.99396,090.0 090.0,090.0,090.0,28.000,28.197,,13.4911,,13.4917,,13.4914,33.3116,,33.3128,33.3115,,33.3134,33.3131,5.7357,,6.0645,6.0513,5.8310,,6.0991,6.0845,6.0679,249.911,263.7558,262.7909,254.062,275.0331,264.0974,263.4442,0.1642,,0.9659,0.5363,2.5798,,1.7720,,24.9876,,24.9874,,,,,,,,,,,13.4872,13.4879,0.0889,296.732,96.723,98.331,,,,,,,,,,,,
CalCOFI,2105SH,015,,2105_015d,07-May-2021 07:23:26,06-May-2021 23:23:26,31.41586,-121.99396,090.0 090.0,090.0,090.0,29.000,29.204,,13.4901,,13.4906,,13.4904,33.3151,,33.3163,33.3145,,33.3164,33.3164,5.7693,,6.0996,6.0871,5.8254,,6.0933,6.0787,6.0829,251.377,265.2883,264.3313,253.818,276.6164,263.8435,264.0874,0.1587,,0.9281,0.5154,2.5795,,1.7720,,24.9905,,24.9900,,,,,,,,,,,13.4861,13.4865,0.0919,296.479,97.291,98.236,,,,,,,,,,,,
CalCOFI,2105SH,015,,2105_015d,07-May-2021 07:23:27,06-May-2021 23:23:27,31.41586,-121.99396,090.0 090.0,090.0,090.0,30.000,30.211,,13.4909,,13.4913,,13.4911,33.3168,,33.3180,33.3160,,33.3179,33.3180,5.7580,,6.0878,6.0750,5.8231,,6.0910,6.0762,6.0756,250.883,264.7719,263.8122,253.720,276.0828,263.7416,263.7769,0.1574,,0.9191,0.5105,2.5794,,1.7720,,24.9917,,24.9910,,,,,,,,,,,13.4868,13.4871,0.0948,296.395,97.103,98.200,30,13.478,,,264.65,0.602,0.213,3.73,0.096,0.12,0.56,2.76
CalCOFI,2105SH,015,,2105_015d,07-May-2021 07:23:30,06-May-2021 23:23:30,31.41585,-121.99398,090.0 090.0,090.0,090.0,31.000,31.218,,13.4900,,13.4906,,13.4903,33.3186,,33.3198,33.3180,,33.3199,33.3199,5.7453,,6.0745,6.0615,5.8328,,6.1010,6.0864,6.0740,250.327,264.1906,263.2280,254.143,275.4824,264.1816,263.7048,0.1702,,1.0070,0.5591,2.5796,,1.7720,,24.9933,,24.9927,,,,,,,,,,,13.4857,13.4863,0.0978,296.268,96.887,98.364,,,,,,,,,,,,
CalCOFI,2105SH,015,,2105_015d,07-May-2021 07:23:32,06-May-2021 23:23:32,31.41584,-121.99398,090.0 090.0,090.0,090.0,32.000,32.225,,13.4901,,13.4905,,13.4903,33.3293,,33.3305,33.3297,,33.3316,33.3311,5.7234,,6.0516,6.0382,5.8332,,6.1014,6.0869,6.0626,249.374,263.1944,262.2267,254.156,274.4531,264.1952,263.2110,0.1504,,0.8707,0.4839,2.5798,,1.7720,,25.0016,,25.0018,,,,,,,,,,,13.4857,13.4860,0.1008,295.506,96.525,98.377,,,,,,,,,,,,
CalCOFI,2105SH,015,,2105_015d,07-May-2021 07:23:33,06-May-2021 23:23:33,31.41582,-121.99398,090.0 090.0,090.0,090.0,33.000,33.233,,13.4767,,13.4771,,13.4769,33.3451,,33.3463,33.3446,,33.3465,33.3464,5.7608,,6.0907,6.0780,5.8350,,6.1033,6.0888,6.0834,251.000,264.8942,263.9352,254.233,276.2092,264.2753,264.1053,0.1525,,0.8852,0.4919,2.5798,,1.7720,,25.0166,,25.0161,,,,,,,,,,,13.4721,13.4725,0.1038,294.109,97.139,98.390,,,,,,,,,,,,
CalCOFI,2105SH,015,,2105_015d,07-May-2021 07:23:36,06-May-2021 23:23:36,31.41582,-121.99400,090.0 090.0,090.0,090.0,34.000,34.240,,13.4658,,13.4670,,13.4664,33.3474,,33.3486,33.3456,,33.3475,33.3481,5.7524,,6.0820,6.0691,5.8174,,6.0851,6.0702,6.0697,250.631,264.5084,263.5475,253.464,275.8107,263.4753,263.5114,0.1602,,0.9384,0.5211,2.5788,,1.7720,,25.0205,,25.0189,,,,,,,,,,,13.4611,13.4623,0.1067,293.761,96.976,98.073,,,,,,,,,,,,
CalCOFI,2105SH,015,,2105_015d,07-May-2021 07:23:38,06-May-2021 23:23:38,31.41580,-121.99401,090.0 090.0,090.0,090.0,35.000,35.247,,13.4410,,13.4412,,13.4411,33.3451,,33.3463,33.3430,,33.3449,33.3456,5.7317,,6.0603,6.0470,5.8080,,6.0753,6.0603,6.0537,249.729,263.5655,262.5997,253.051,274.8365,263.0456,262.8227,0.1462,,0.8415,0.4679,2.5774,,1.7720,,25.0238,,25.0221,,,,,,,,,,,13.4361,13.4363,0.1097,293.474,96.577,97.861,,,,,,,,,,,,
CalCOFI,2105SH,015,,2105_015d,07-May-2021 07:23:39,06-May-2021 23:23:39,31.41579,-121.99402,090.0 090.0,090.0,090.0,36.000,36.254,,13.4069,,13.4070,,13.4070,33.3407,,33.3419,33.3384,,33.3403,33.3411,5.7361,,6.0649,6.0517,5.7979,,6.0649,6.0497,6.0507,249.921,263.7662,262.8014,252.612,275.0439,262.5889,262.6952,0.1398,,0.7969,0.4436,2.5756,,1.7720,,25.0273,,25.0255,,,,,,,,,,,13.4019,13.4020,0.1126,293.167,96.582,97.620,,,,,,,,,,,,
CalCOFI,2105SH,015,,2105_015d,07-May-2021 07:23:41,06-May-2021 23:23:41,31.41578,-121.99402,090.0 090.0,090.0,090.0,37.000,37.261,,13.3688,,13.3692,,13.3690,33.3362,,33.3374,33.3337,,33.3356,33.3365,5.7187,,6.0467,6.0332,5.7841,,6.0506,6.0352,6.0342,249.162,262.9728,262.0039,252.009,274.2242,261.9615,261.9827,0.1395,,0.7948,0.4425,2.5726,,1.7720,,25.0315,,25.0295,,,,,,,,,,,13.3637,13.3641,0.1156,292.791,96.211,97.309,,,,,,,,,,,,
CalCOFI,2105SH,015,,2105_015d,07-May-2021 07:23:44,06-May-2021 23:23:44,31.41578,-121.99402,090.0 090.0,090.0,090.0,38.000,38.268,,13.3093,,13.3092,,13.3093,33.3303,,33.3315,33.3285,,33.3304,33.3310,5.6875,,6.0141,6.0000,5.7691,,6.0350,6.0194,6.0097,247.800,261.5489,260.5728,251.356,272.7532,261.2822,260.9275,0.1482,,0.8554,0.4755,2.5668,,1.7720,,25.0390,,25.0376,,,,,,,,,,,13.3040,13.3040,0.1185,292.104,95.565,96.935,,,,,,,,,,,,
CalCOFI,2105SH,015,,2105_015d,07-May-2021 07:23:47,06-May-2021 23:23:47,31.41576,-121.99405,090.0 090.0,090.0,090.0,39.000,39.275,,13.2724,,13.2725,,13.2725,33.3326,,33.3338,33.3280,,33.3299,33.3319,5.6309,,5.9549,5.9398,5.7059,,5.9696,5.9529,5.9464,245.332,258.9689,257.9796,248.599,270.0877,258.4139,258.1968,0.1420,,0.8123,0.4520,2.5573,,1.7720,,25.0482,,25.0446,,,,,,,,,,,13.2670,13.2671,0.1215,291.252,94.544,95.800,,,,,,,,,,,,
CalCOFI,2105SH,015,,2105_015d,07-May-2021 07:23:48,06-May-2021 23:23:48,31.41574,-121.99406,090.0 090.0,090.0,090.0,40.000,40.283,,13.1429,,13.1435,,13.1432,33.3157,,33.3169,33.3106,,33.3125,33.3147,5.6497,,5.9746,5.9598,5.7174,,5.9815,5.9650,5.9624,246.146,259.8198,258.8349,249.098,270.9669,258.9330,258.8840,0.1311,,0.7360,0.4106,2.5520,,1.7720,,25.0610,,25.0569,,,,,,,,,,,13.1374,13.1380,0.1244,290.050,94.596,95.729,,,,,,,,,,,,
CalCOFI,2105SH,015,,2105_015d,07-May-2021 07:23:50,06-May-2021 23:23:50,31.41574,-121.99406,090.0 090.0,090.0,090.0,41.000,41.290,,13.1060,,13.1061,,13.1061,33.3153,,33.3165,33.3120,,33.3139,33.3152,5.6373,,5.9616,5.9466,5.7241,,5.9884,5.9721,5.9594,245.605,259.2543,258.2665,249.388,270.3826,259.2348,258.7507,0.1342,,0.7578,0.4224,2.5464,,1.7720,,25.0680,,25.0655,,,,,,,,,,,13.1004,13.1005,0.1273,289.410,94.317,95.768,,,,,,,,,,,,
CalCOFI,2105SH,015,,2105_015d,07-May-2021 07:23:51,06-May-2021 23:23:51,31.41574,-121.99406,090.0 090.0,090.0,090.0,42.000,42.297,,13.0896,,13.0903,,13.0900,33.3298,,33.3310,33.3285,,33.3304,33.3307,5.6488,,5.9736,5.9589,5.7171,,5.9812,5.9647,5.9618,246.101,259.7728,258.7877,249.077,270.9183,258.9112,258.8495,0.1334,,0.7521,0.4193,2.5391,,1.7720,,25.0825,,25.0814,,,,,,,,,,,13.0839,13.0846,0.1302,288.052,94.485,95.629,,,,,,,,,,,,
CalCOFI,2105SH,015,,2105_015d,07-May-2021 07:23:53,06-May-2021 23:23:53,31.41572,-121.99408,090.0 090.0,090.0,090.0,43.000,43.304,,13.0950,,13.0961,,13.0956,33.3416,,33.3428,33.3398,,33.3417,33.3423,5.6179,,5.9413,5.9260,5.6943,,5.9576,5.9407,5.9334,244.754,258.3646,257.3723,248.083,269.4635,257.8771,257.6247,0.1227,,0.6768,0.3787,2.5325,,1.7720,,25.0906,,25.0890,,,,,,,,,,,13.0892,13.0903,0.1331,287.310,93.987,95.266,,,,,,,,,,,,
CalCOFI,2105SH,015,,2105_015d,07-May-2021 07:23:56,06-May-2021 23:23:56,31.41571,-121.99408,090.0 090.0,090.0,090.0,44.000,44.311,,12.9847,,12.9856,,12.9852,33.3536,,33.3548,33.3502,,33.3521,33.3535,5.6134,,5.9366,5.9212,5.6800,,5.9427,5.9257,5.9235,244.551,258.1524,257.1590,247.452,269.2443,257.2206,257.1898,0.1382,,0.7858,0.4376,2.5241,,1.7720,,25.1218,,25.1190,,,,,,,,,,,12.9787,12.9797,0.1360,284.366,93.705,94.816,,,,,,,,,,,,
CalCOFI,2105SH,015,,2105_015d,07-May-2021 07:23:58,06-May-2021 23:23:58,31.41570,-121.99410,090.0 090.0,090.0,090.0,45.000,45.319,,12.8666,,12.8669,,12.8668,33.3641,,33.3653,33.3594,,33.3613,33.3633,5.6107,,5.9338,5.9183,5.6835,,5.9464,5.9293,5.9238,244.426,258.0217,257.0277,247.600,269.1093,257.3746,257.2012,0.1192,,0.6521,0.3654,2.5176,,1.7720,,25.1532,,25.1495,,,,,,,,,,,12.8606,12.8609,0.1389,281.393,93.438,94.649,,,,,,,,,,,,
CalCOFI,2105SH,015,,2105_015d,07-May-2021 07:24:00,06-May-2021 23:24:00,31.41569,-121.99412,090.0 090.0,090.0,090.0,46.000,46.326,,12.8249,,12.8269,,12.8259,33.3638,,33.3650,33.3622,,33.3641,33.3646,5.6212,,5.9448,5.9295,5.6970,,5.9604,5.9435,5.9365,244.883,258.4995,257.5079,248.185,269.6028,257.9832,257.7456,0.1186,,0.6478,0.3632,2.5125,,1.7720,,25.1612,,25.1595,,,,,,,,,,,12.8187,12.8207,0.1417,280.657,93.532,94.796,,,,,,,,,,,,
CalCOFI,2105SH,015,,2105_015d,07-May-2021 07:24:02,06-May-2021 23:24:02,31.41568,-121.99412,090.0 090.0,090.0,090.0,47.000,47.333,,12.8379,,12.8376,,12.8378,33.3679,,33.3691,33.3669,,33.3688,33.3690,5.6287,,5.9526,5.9375,5.6997,,5.9631,5.9464,5.9420,245.206,258.8372,257.8473,248.301,269.9517,258.1039,257.9756,0.1207,,0.6627,0.3711,2.5090,,1.7720,,25.1619,,25.1611,,,,,,,,,,,12.8316,12.8313,0.1445,280.619,93.683,94.865,,,,,,,,,,,,
CalCOFI,2105SH,015,,2105_015d,07-May-2021 07:24:03,06-May-2021 23:24:03,31.41566,-121.99412,090.0 090.0,090.0,090.0,48.000,48.340,,12.8542,,12.8553,,12.8548,33.3737,,33.3749,33.3734,,33.3753,33.3751,5.6319,,5.9559,5.9409,5.6926,,5.9558,5.9389,5.9399,245.349,258.9866,257.9975,247.991,270.1061,257.7814,257.8895,0.1193,,0.6528,0.3658,2.5069,,1.7720,,25.1632,,25.1627,,,,,,,,,,,12.8477,12.8489,0.1474,280.526,93.773,94.785,,,,,,,,,,,,
CalCOFI,2105SH,015,,2105_015d,07-May-2021 07:24:04,06-May-2021 23:24:04,31.41566,-121.99412,090.0 090.0,090.0,090.0,49.000,49.347,,12.8474,,12.8480,,12.8477,33.3780,,33.3792,33.3767,,33.3786,33.3789,5.6221,,5.9457,5.9304,5.6955,,5.9588,5.9420,5.9362,244.920,258.5382,257.5468,248.117,269.6428,257.9125,257.7297,0.1207,,0.6627,0.3711,2.5045,,1.7720,,25.1679,,25.1667,,,,,,,,,,,12.8409,12.8414,0.1502,280.104,93.599,94.821,,,,,,,,,,,,
CalCOFI,2105SH,015,,2105_015d,07-May-2021 07:24:08,06-May-2021 23:24:08,31.41565,-121.99415,090.0 090.0,090.0,090.0,50.000,50.355,,12.8327,,12.8338,,12.8333,33.3820,,33.3832,33.3807,,33.3826,33.3829,5.6104,,5.9335,5.9180,5.6708,,5.9332,5.9160,5.9170,244.409,258.0040,257.0098,247.038,269.0909,256.7899,256.8999,0.1304,,0.7311,0.4080,2.4997,,1.7720,,25.1739,,25.1726,,,,,,,,,,,12.8259,12.8271,0.1530,279.561,93.378,94.384,,,,,,,,,,,,
CalCOFI,2105SH,015,,2105_015d,07-May-2021 07:24:09,06-May-2021 23:24:09,31.41564,-121.99416,090.0 090.0,090.0,090.0,51.000,51.362,,12.7866,,12.7882,,12.7874,33.3901,,33.3913,33.3866,,33.3885,33.3899,5.5976,,5.9201,5.9044,5.6494,,5.9110,5.8935,5.8990,243.847,257.4165,256.4193,246.104,268.4839,255.8182,256.1188,0.1156,,0.6265,0.3518,2.4968,,1.7720,,25.1892,,25.1862,,,,,,,,,,,12.7798,12.7814,0.1558,278.122,93.081,93.943,51,12.488,,,253.60,0.461,0.268,7.15,0.157,0.21,0.77,4.40
CalCOFI,2105SH,015,,2105_015d,07-May-2021 07:24:11,06-May-2021 23:24:11,31.41563,-121.99416,090.0 090.0,090.0,090.0,52.000,52.369,,12.7134,,12.7139,,12.7137,33.4009,,33.4021,33.3970,,33.3989,33.4005,5.5911,,5.9133,5.8975,5.6501,,5.9118,5.8942,5.8959,243.557,257.1133,256.1146,246.130,268.1707,255.8453,255.9800,0.1117,,0.5988,0.3370,2.4941,,1.7720,,25.2119,,25.2088,,,,,,,,,,,12.7065,12.7070,0.1586,275.985,92.837,93.817,,,,,,,,,,,,
CalCOFI,2105SH,015,,2105_015d,07-May-2021 07:24:13,06-May-2021 23:24:13,31.41562,-121.99416,090.0 090.0,090.0,090.0,53.000,53.376,,12.6592,,12.6603,,12.6598,33.4054,,33.4066,33.4022,,33.4041,33.4054,5.5912,,5.9134,5.8976,5.6389,,5.9002,5.8824,5.8900,243.558,257.1143,256.1157,245.638,268.1718,255.3334,255.7246,0.1098,,0.5853,0.3297,2.4906,,1.7720,,25.2260,,25.2232,,,,,,,,,,,12.6521,12.6533,0.1614,274.667,92.737,93.529,,,,,,,,,,,,
CalCOFI,2105SH,015,,2105_015d,07-May-2021 07:24:15,06-May-2021 23:24:15,31.41561,-121.99418,090.0 090.0,090.0,090.0,54.000,54.383,,12.6251,,12.6262,,12.6257,33.4062,,33.4074,33.4042,,33.4061,33.4068,5.5514,,5.8718,5.8552,5.6130,,5.8733,5.8552,5.8552,241.823,255.3006,254.2926,244.505,266.2980,254.1547,254.2237,0.1142,,0.6166,0.3465,2.4845,,1.7720,,25.2333,,25.2315,,,,,,,,,,,12.6180,12.6190,0.1641,273.998,92.013,93.034,,,,,,,,,,,,
CalCOFI,2105SH,015,,2105_015d,07-May-2021 07:24:16,06-May-2021 23:24:16,31.41560,-121.99418,090.0 090.0,090.0,090.0,55.000,55.391,,12.5889,,12.5895,,12.5892,33.4068,,33.4080,33.4036,,33.4055,33.4068,5.5503,,5.8706,5.8541,5.6131,,5.8734,5.8553,5.8547,241.776,255.2514,254.2433,244.509,266.2473,254.1589,254.2011,0.1033,,0.5388,0.3051,2.4785,,1.7720,,25.2407,,25.2381,,,,,,,,,,,12.5816,12.5823,0.1669,273.309,91.926,92.965,,,,,,,,,,,,